Content
SEND FEEDBACK

Daily
Averages
Monthly
Summary
United Kingdom

LONDON, ENGLAND


Home > Europe > United Kingdom > England
Elevation: 203 feet     Latitude: 51 09N     Longitude: 000 11W

WEATHER
 
SELECT A DAY
Number of Records: 294,675;   Date Range: 7/1/96 - 9/21/14
 
SHARE

PRINT THIS DATA

[ ← Previous Day ]
WEATHER ALMANAC - JUNE 22, 2013
[ Next Day → ]
[ °C ]   °F
Weather ElementAverageHighLow
Temperature56.8 °F62.6 °F (1:50 pm)51.8 °F (5:50 am)
Dewpoint51.6 °F55.4 °F (10:20 am)50 °F (2:20 am)
Humidity83.4 %94 % (1:50 am)68 % (1:50 pm)
Barometer29.76 in29.89 in (12:50 am)29.71 in (12:50 pm)
Wind Speed13.4 mph18.4 mph (2:50 pm)
Wind Gust31.1 mph (3:50 pm)
Weather ElementAverage
Visibility5.7 mi
Wind DirectionSSW (217 °)

Weather ElementTotal
Precipitation---
Heating Degree Days7.8 (Base 65)
Growing Degree Days7.2 (Base 50)
Averaged from 47 records on June 22, 2013
WEATHER CONDITIONS BREAKOUT
WIND DIRECTION BREAKOUT
WEATHER BY HOUR - JUNE 22, 2013
[ °C ]   °F
Local TimeTemperatureDewpointHumidityBarometerVisibilityWind DirectionWind SpeedGust SpeedPrecipitationEventsConditions
12:50 AM55.4 °F51.8 °F88 %29.89 inSSW (210°)9.2 mphClear
1:20 AM55.4 °F51.8 °F88 %29.89 in6.2 miSSW (210°)8.1 mphPartly Cloudy
1:50 AM53.6 °F51.8 °F94 %29.89 in6.2 miSSW (200°)9.2 mphScattered Clouds
2:20 AM53.6 °F50.0 °F88 %29.86 in6.2 miSW (220°)11.5 mphScattered Clouds
2:50 AM55.4 °F50.0 °F82 %29.86 in6.2 miSSW (210°)10.4 mphScattered Clouds
3:20 AM55.4 °F50.0 °F82 %29.86 in6.2 miSW (220°)11.5 mphScattered Clouds
3:50 AM55.4 °F50.0 °F82 %29.83 in6.2 miSSW (210°)11.5 mphRainLight Rain
4:20 AM55.4 °F50.0 °F82 %29.83 in6.2 miSSW (210°)13.8 mphRainLight Rain
4:50 AM53.6 °F50.0 °F88 %29.83 in6.2 miSSW (210°)13.8 mphRainLight Rain
5:20 AM53.6 °F50.0 °F88 %29.83 in2.8 miSSW (210°)15.0 mphRainRain
5:50 AM51.8 °F50.0 °F94 %29.80 in5.0 miSSW (200°)11.5 mphRainLight Rain
6:20 AM53.6 °F51.8 °F94 %29.80 in5.6 miSSW (200°)12.7 mphRainLight Rain
6:50 AM53.6 °F51.8 °F94 %29.80 in3.1 miSSW (200°)11.5 mphRainLight Rain
7:20 AM53.6 °F51.8 °F94 %29.77 in3.7 miSSW (200°)12.7 mphRainLight Rain
7:50 AM53.6 °F51.8 °F94 %29.77 in1.9 miSSW (210°)13.8 mph25.3 mphRainLight Rain
8:20 AM55.4 °F53.6 °F94 %29.77 in2.2 miSSW (200°)12.7 mph24.2 mphRainLight Rain
8:50 AM55.4 °F53.6 °F94 %29.77 in3.7 miSSW (210°)11.5 mphRainLight Rain
9:20 AM55.4 °F53.6 °F94 %29.74 in5.0 miSSW (210°)16.1 mphOvercast
9:50 AM57.2 °F53.6 °F88 %29.74 in6.2 miSW (220°)16.1 mphMostly Cloudy
10:20 AM59.0 °F55.4 °F88 %29.74 in6.2 miSW (220°)12.7 mph24.2 mphMostly Cloudy
10:50 AM60.8 °F55.4 °F82 %29.74 in6.2 miSW (220°)13.8 mphMostly Cloudy
11:20 AM59.0 °F53.6 °F82 %29.74 in6.2 miSSW (210°)16.1 mphMostly Cloudy
11:50 AM59.0 °F53.6 °F82 %29.74 in6.2 miSSW (210°)16.1 mphMostly Cloudy
12:20 PM59.0 °F53.6 °F82 %29.74 in6.2 miSW (220°)16.1 mphMostly Cloudy
12:50 PM60.8 °F53.6 °F77 %29.71 in6.2 miSSW (210°)16.1 mphMostly Cloudy
1:20 PM60.8 °F53.6 °F77 %29.71 in6.2 miSW (220°)16.1 mphMostly Cloudy
1:50 PM62.6 °F51.8 °F68 %29.71 in6.2 miSW (220°)16.1 mph28.8 mphMostly Cloudy
2:20 PM62.6 °F51.8 °F68 %29.71 in6.2 miSW (220°)17.3 mph28.8 mphMostly Cloudy
2:50 PM60.8 °F51.8 °F72 %29.71 in6.2 miSW (230°)18.4 mphMostly Cloudy
3:20 PM60.8 °F50.0 °F68 %29.71 in6.2 miSW (230°)15.0 mphMostly Cloudy
3:50 PM59.0 °F51.8 °F77 %29.74 in6.2 miWSW (240°)17.3 mph31.1 mphRainLight Rain
4:20 PM59.0 °F51.8 °F77 %29.74 in6.2 miSW (230°)16.1 mphMostly Cloudy
4:50 PM59.0 °F51.8 °F77 %29.71 in6.2 miSW (230°)13.8 mphMostly Cloudy
5:20 PM57.2 °F51.8 °F82 %29.71 in6.2 miSW (230°)13.8 mph26.5 mphMostly Cloudy
5:50 PM57.2 °F50.0 °F77 %29.71 in6.2 miSW (230°)15.0 mphMostly Cloudy
6:20 PM57.2 °F50.0 °F77 %29.71 in6.2 miSW (220°)13.8 mphMostly Cloudy
6:50 PM57.2 °F50.0 °F77 %29.71 in6.2 miSW (230°)13.8 mphMostly Cloudy
7:20 PM57.2 °F50.0 °F77 %29.71 in6.2 miSW (230°)15.0 mphMostly Cloudy
7:50 PM57.2 °F50.0 °F77 %29.71 in6.2 miSW (220°)12.7 mphMostly Cloudy
8:20 PM57.2 °F50.0 °F77 %29.71 in6.2 miSW (230°)12.7 mphMostly Cloudy
8:50 PM57.2 °F50.0 °F77 %29.71 in6.2 miSW (220°)12.7 mphMostly Cloudy
9:20 PM55.4 °F50.0 °F82 %29.71 in6.2 miSSW (210°)10.4 mphMostly Cloudy
9:50 PM55.4 °F51.8 °F88 %29.71 in6.2 miSSW (210°)10.4 mphMostly Cloudy
10:20 PM55.4 °F51.8 °F88 %29.71 in6.2 miSW (220°)11.5 mphMostly Cloudy
10:50 PM55.4 °F51.8 °F88 %29.71 in6.2 miSW (220°)11.5 mphMostly Cloudy
11:20 PM55.4 °F51.8 °F88 %29.71 in6.2 miSW (230°)12.7 mphMostly Cloudy
11:50 PM55.4 °F51.8 °F88 %29.71 in6.2 miSW (230°)11.5 mphMostly Cloudy
Hourly data recorded from EGKK, located miles away from London, England







STORIES FROM OUR PARTNERS